305P/Skiff (2024)

Japanese version
Home page
Updated on November 25, 2024

---------------------------------------------------------------------

* Profile

* Pictures

* Orbital Elements

Epoch 2024 Oct. 17.0 TT = JDT 2460600.5
T 2024 Nov. 17.15324 TT                                 Rudenko
q   1.4186699            (2000.0)            P               Q
n   0.09875467     Peri.  147.41798     +0.87716000     -0.44702339
a   4.6355111      Node   240.10653     +0.38575146     +0.87347513
e   0.6939561      Incl.   11.67161     +0.28598278     +0.19290227
P   9.98
From 756 observations 2004 Oct. 7-2024 Oct. 10, mean residual 1".1.

* Finding Charts

* Magnitudes Graph

        m1 = 13.5 + 5 log d + 17.0 log r(t - 65)

---------------------------------------------------------------------

The orbital elements are published on M.P.E.C. 2024-T253.
The charts are made with StellaNavigator Ver.11 (AstroArts).
The magnitudes graphs are made with Comet for Windows.

---------------------------------------------------------------------

Copyright(C) Seiichi Yoshida (comet@aerith.net). All rights reserved.